GW1127 Weather Reports


time (UTC)temp
C
wind
direction
speed
KPH
gust
KPH
rain 1hr
cm
rain 24hr
cm
rain mn
cm
humidity
%
barometer
mb
20260508025918 12 0.0 0.0 0.00 1.24 1.14 95 1009.0
20260508024919 12 0.0 0.0 0.00 1.24 1.14 95 1008.9
20260508023918 12 0.0 0.0 0.00 1.24 1.14 95 1008.7
20260508022919 12 0.0 0.0 0.00 1.24 1.14 95 1008.7
20260508021919 12 0.0 0.0 0.00 1.24 1.14 95 1008.7
20260508020919 12 0.0 0.0 0.00 1.24 1.14 95 1008.4
20260508015919 12 0.0 0.0 0.00 1.24 1.14 95 1008.5
20260508014940 12 0.0 0.0 0.00 1.24 1.14 95 1008.4
20260508013920 12 0.0 0.0 0.00 1.24 1.14 95 1008.0
20260508012920 12 0.0 0.0 0.00 1.24 1.14 95 1007.7
20260508011920 12 0.0 0.0 0.00 1.24 1.14 95 1007.9
20260508010940 12 0.0 0.0 0.00 1.24 1.14 95 1007.9
20260508005922 12 0.0 0.0 0.00 1.24 1.14 94 1007.7
20260508004921 12 339 1.6 3.2 0.00 1.24 1.14 94 1007.5
20260508003921 12 271 0.0 0.0 0.00 1.24 1.14 94 1007.5
20260508002921 12 0.0 0.0 0.03 1.24 1.14 94 1007.2
20260508001921 12 21 1.6 1.6 0.03 1.24 1.14 94 1007.2
20260508000921 12 15 0.0 0.0 0.03 1.24 1.14 94 1007.3
20260507235941 12 330 0.0 1.6 0.03 1.24 1.14 94 1007.2
20260507234921 12 360 1.6 1.6 0.03 1.24 1.14 94 1007.0
20260507233922 12 355 1.6 1.6 0.03 1.24 1.14 94 1006.9
20260507232922 12 353 0.0 0.0 0.00 1.22 1.12 94 1006.8
20260507231922 12 0.0 0.0 0.00 1.22 1.12 93 1006.3
20260507230922 12 319 1.6 1.6 0.00 1.22 1.12 93 1006.1
20260507225922 12 0.0 0.0 0.00 1.22 1.12 94 1006.2
20260507224943 12 166 3.2 6.4 0.00 1.22 1.12 93 1006.3
20260507223923 13 262 0.0 1.6 0.00 1.22 1.12 93 1006.2
20260507222923 13 330 1.6 3.2 0.00 1.22 1.12 94 1006.0
20260507221943 13 351 0.0 1.6 0.00 1.22 1.12 94 1006.2
20260507221003 13 317 3.2 4.8 0.00 1.22 1.12 94 1006.5
20260507215923 13 0.0 0.0 0.00 1.22 1.12 94 1006.6
20260507214944 12 302 0.0 1.6 0.00 1.22 1.12 95 1006.3
20260507213924 12 289 1.6 1.6 0.00 1.22 1.12 94 1006.1
20260507212924 12 138 0.0 0.0 0.00 1.22 1.12 95 1006.2
20260507211924 12 332 1.6 3.2 0.00 1.22 1.12 95 1006.1
20260507210940 12 0.0 0.0 0.00 1.22 1.12 95 1006.0
20260507205924 12 282 0.0 0.0 0.00 1.22 1.12 95 1006.0
20260507204920 12 311 3.2 6.4 0.00 1.22 1.12 95 1005.8
20260507203925 12 260 1.6 3.2 0.00 1.22 1.12 95 1005.8
20260507202925 12 275 1.6 3.2 0.00 1.22 1.12 95 1005.8
20260507201925 12 255 3.2 3.2 0.00 1.22 1.12 95 1005.8
20260507200926 13 293 4.8 11.3 0.00 1.22 1.12 95 1005.4
20260507195921 13 320 4.8 8.0 0.00 1.22 1.12 95 1005.6
20260507194921 13 294 4.8 6.4 0.00 1.22 1.12 95 1005.6
20260507193946 13 333 3.2 4.8 0.00 1.22 1.12 95 1005.4
20260507192922 13 294 6.4 8.0 0.00 1.22 1.12 95 1005.8
20260507191926 13 355 1.6 1.6 0.00 1.24 1.12 95 1005.7
20260507190926 13 338 1.6 3.2 0.00 1.27 1.12 95 1005.7
20260507185926 13 322 3.2 4.8 0.00 1.32 1.12 95 1005.7
20260507184927 13 339 3.2 4.8 0.00 1.37 1.12 95 1005.5
20260507183926 13 169 1.6 1.6 0.03 1.40 1.12 95 1005.6
20260507182927 13 316 1.6 3.2 0.05 1.45 1.12 95 1005.5
20260507181927 13 301 4.8 4.8 0.05 1.45 1.12 95 1004.9
20260507180927 13 308 3.2 4.8 0.05 1.45 1.12 95 1005.1
20260507174948 14 102 3.2 6.4 0.05 1.45 1.12 95 1005.4
20260507173917 14 334 3.2 4.8 0.08 1.45 1.09 95 1006.1
20260507172928 15 320 4.8 4.8 0.08 1.42 1.07 95 1005.5
20260507171928 15 336 3.2 3.2 0.08 1.42 1.07 95 1005.1
20260507170928 16 310 4.8 6.4 0.10 1.42 1.07 94 1004.6
20260507165928 17 333 1.6 3.2 0.13 1.40 1.07 94 1004.2
20260507164918 18 279 4.8 8.0 0.15 1.37 1.04 92 1004.5
20260507163928 19 300 1.6 1.6 0.13 1.35 1.02 95 1004.9
20260507162929 19 270 0.0 1.6 0.10 1.35 0.99 95 1005.5
20260507161929 19 350 1.6 3.2 0.10 1.32 0.99 95 1005.9
20260507160929 19 337 1.6 3.2 0.10 1.30 0.97 94 1005.8
20260507155939 20 348 3.2 4.8 0.10 1.27 0.94 94 1006.0
20260507155009 20 261 1.6 4.8 0.08 1.22 0.89 95 1005.9
20260507153929 20 267 3.2 4.8 0.08 1.22 0.89 95 1005.8
20260507152917 20 0.0 0.0 0.15 1.22 0.89 95 1005.6
20260507151937 19 0.0 0.0 0.20 1.22 0.89 95 1005.7
20260507150930 19 286 0.0 1.6 0.23 1.19 0.86 95 1005.9
20260507145930 19 162 1.6 3.2 0.23 1.17 0.84 95 1005.8
20260507144930 19 148 1.6 3.2 0.23 1.17 0.81 95 1005.8
20260507143930 19 0.0 0.0 0.23 1.14 0.81 95 1006.0
20260507142931 19 134 1.6 3.2 0.15 1.07 0.74 95 1005.8
20260507141917 19 133 0.0 1.6 0.10 1.02 0.66 95 1005.9
20260507140918 19 325 0.0 0.0 0.08 0.97 0.64 95 1006.0
20260507135919 19 138 0.0 1.6 0.05 0.94 0.61 96 1005.9
20260507134918 19 40 0.0 1.6 0.03 0.94 0.61 96 1006.2
20260507133958 19 0.0 0.0 0.03 0.91 0.58 96 1006.4
20260507132918 19 17 1.6 1.6 0.00 0.91 0.58 96 1006.4
20260507131919 19 148 0.0 1.6 0.00 0.91 0.58 96 1006.3
20260507130918 18 132 0.0 0.0 0.00 0.91 0.58 96 1006.3
20260507125919 18 138 1.6 1.6 0.00 0.91 0.58 96 1006.3
20260507124919 18 0.0 0.0 0.00 0.89 0.56 95 1006.5
20260507123919 18 176 0.0 3.2 0.00 0.89 0.56 95 1006.4
20260507122919 18 331 0.0 0.0 0.00 0.89 0.56 96 1006.3
20260507121919 18 0.0 0.0 0.00 0.89 0.56 95 1006.2
20260507120920 18 0.0 0.0 0.00 0.89 0.56 95 1006.3
20260507115920 18 345 0.0 0.0 0.00 0.89 0.56 95 1006.5
20260507114920 18 0.0 0.0 0.00 0.89 0.56 95 1006.3
20260507113920 18 0.0 0.0 0.00 0.89 0.56 95 1006.7
20260507112920 18 285 0.0 0.0 0.00 0.89 0.56 95 1006.7
20260507111920 18 152 0.0 1.6 0.00 0.89 0.56 95 1006.7
20260507110921 18 105 0.0 1.6 0.00 0.89 0.56 95 1006.7
20260507105921 18 315 1.6 1.6 0.00 0.89 0.56 95 1006.6
20260507104921 18 281 0.0 0.0 0.00 0.89 0.56 95 1006.3
20260507103919 18 144 3.2 3.2 0.00 0.89 0.56 95 1006.2
20260507102920 18 0.0 0.0 0.00 0.89 0.56 95 1006.3
20260507101919 18 0.0 0.0 0.00 0.89 0.56 95 1006.2
20260507101019 18 254 0.0 1.6 0.00 0.89 0.56 95 1006.2
20260507095917 17 141 0.0 1.6 0.00 0.89 0.56 95 1006.2
20260507094917 17 0.0 0.0 0.00 0.89 0.56 95 1006.1
20260507093917 17 0.0 0.0 0.00 0.89 0.56 95 1006.3
20260507092918 17 242 0.0 1.6 0.00 0.89 0.56 95 1006.2
20260507091920 17 0.0 0.0 0.00 0.89 0.56 95 1006.0
20260507090940 17 0.0 0.0 0.00 0.89 0.56 95 1006.2
20260507085917 17 0.0 0.0 0.00 0.89 0.56 95 1006.4
20260507084957 17 0.0 0.0 0.00 0.89 0.56 95 1006.4
20260507083918 18 256 0.0 3.2 0.00 0.89 0.56 95 1006.3
20260507082918 18 166 0.0 1.6 0.00 0.89 0.56 95 1006.8
20260507081918 18 0.0 0.0 0.00 0.89 0.56 95 1007.0
20260507080916 18 146 0.0 1.6 0.00 0.89 0.56 95 1007.0
20260507075938 18 0.0 0.0 0.00 0.89 0.56 95 1006.5
20260507074919 18 0.0 0.0 0.00 0.89 0.56 95 1006.7
20260507073919 18 261 0.0 1.6 0.00 0.89 0.56 95 1007.1
20260507072919 18 251 0.0 1.6 0.00 0.89 0.56 95 1007.3
20260507071919 18 0.0 0.0 0.00 0.89 0.56 95 1007.3
20260507070916 18 0.0 0.0 0.00 0.89 0.56 95 1007.3
20260507065916 18 0.0 0.0 0.00 0.89 0.56 95 1007.2
20260507064920 18 0.0 0.0 0.00 0.89 0.56 95 1007.5
20260507063940 18 359 0.0 1.6 0.00 0.89 0.56 95 1008.0
20260507062920 18 0.0 0.0 0.00 0.89 0.56 95 1008.1
20260507061917 18 285 1.6 3.2 0.03 0.89 0.56 95 1007.9
20260507060957 18 0.0 0.0 0.10 0.89 0.56 94 1007.8
20260507055917 18 286 1.6 3.2 0.25 0.89 0.56 94 1008.1
20260507054918 18 0.0 0.0 0.36 0.89 0.56 94 1008.1
20260507053918 18 304 0.0 1.6 0.41 0.89 0.56 94 1008.2
20260507052918 18 4 3.2 6.4 0.51 0.89 0.56 94 1008.0
20260507051918 18 136 0.0 1.6 0.53 0.86 0.53 93 1007.4
20260507050919 18 13 0.0 1.6 0.46 0.79 0.46 93 1007.8
20260507045919 18 155 3.2 4.8 0.30 0.64 0.30 93 1007.9
20260507044919 19 156 3.2 6.4 0.23 0.53 0.20 92 1008.0
20260507043916 19 146 1.6 3.2 0.18 0.48 0.15 91 1009.2
20260507042919 20 270 1.6 6.4 0.10 0.38 0.05 90 1009.6
20260507041919 20 124 3.2 6.4 0.05 0.33 0.00 87 1009.7
20260507040920 20 9 3.2 6.4 0.08 0.33 0.00 88 1009.4
20260507035917 20 71 1.6 6.4 0.10 0.33 0.33 90 1008.8
20260507034937 20 0.0 0.0 0.10 0.30 0.30 90 1008.4
20260507033917 20 259 0.0 1.6 0.08 0.30 0.30 88 1007.8
20260507032917 20 0.0 0.0 0.08 0.30 0.30 87 1008.1
20260507031919 21 124 1.6 3.2 0.08 0.30 0.30 85 1008.3
20260507030917 21 0.0 0.0 0.05 0.25 0.25 83 1008.3